Regional Weather Roundup
Issued by NWS

Home | Current Version | Previous Version | Graphics & Text | Print | Product List | Glossary On
Versions: 1 2 3 4 5 6 7 8 9 10 11 12 13 14 15 16 17 18 19 20 21 22 23 24 25 26 27 28 29 30 31 32 33 34 35 36 37 38 39 40 41 42 43 44 45 46 47 48 49 50
447
ASUS45 KCYS 171010
RWRWY

WYOMING REGIONAL WEATHER ROUNDUP
NATIONAL WEATHER SERVICE CHEYENNE WY
300 AM MST FRI NOV 17 2017

NOTE:  "FAIR" INDICATES FEW OR NO CLOUDS BELOW 12,000 FEET
WITH NO SIGNIFICANT WEATHER AND/OR OBSTRUCTIONS TO VISIBILITY.

WYZ001-171100-
YELLOWSTONE NATIONAL PARK

CITY           SKY/WX    TMP DP  RH WIND       PRES   REMARKS
LK YELLOWSTONE   N/A     28  26  92 VRB7      29.67R WCI  21
W YELLOWSTONE  NOT AVBL

$$
WYZ002>013-054>058-071-098>099-171100-
NORTHERN WYOMING

CITY           SKY/WX    TMP DP  RH WIND       PRES   REMARKS
JACKSON        LGT RAIN  33  32  96 S9        29.68S WCI  25
CODY           FAIR      31  29  92 NW5       29.62R WCI  26
GREYBULL       FAIR      37  34  89 CALM      29.59R
WORLAND        FAIR      37  36  96 S6        29.58S WCI  32
SHERIDAN       CLOUDY    33  33 100 CALM      29.64F
BUFFALO        CLOUDY    33  31  92 SE7       29.64S FOG     WCI  27
GILLETTE       LGT SNOW  33  32  96 NE3       29.65F FOG
HULETT         LGT SNOW  34  32  93 CALM      29.68R VSB 1
NEWCASTLE      DRIZZLE   37  32  81 CALM      29.61R

$$
WYZ014>020-022>026-101>103-171100-
CENTRAL WYOMING

CITY           SKY/WX    TMP DP  RH WIND       PRES   REMARKS
BIG PINEY      FLURRIES  32  32 100 S5        29.72S WCI  27
PINEDALE       CLOUDY    32  32 100 CALM      29.72S FOG
DUBOIS         LGT SNOW  32  30  93 NW14      29.65R WCI  22
LANDER         CLOUDY    39  36  89 SE6       29.62R WCI  35
RIVERTON       LGT RAIN  40  34  79 SW7       29.63R
CASPER         CLOUDY    45  39  79 W20G25    29.64R
DOUGLAS        FAIR      47  34  60 NW12      29.61R

$$
WYZ021-027>030-104>119-171100-
SOUTHERN WYOMING

CITY           SKY/WX    TMP DP  RH WIND       PRES   REMARKS
EVANSTON       MOCLDY    39  38  96 SW22      29.73F WCI  29
FORT BRIDGER   CLOUDY    40  39  97 W18G32    29.76S WCI  31
ROCK SPRINGS   RAIN      38  36  92 SW21      29.74S FOG     WCI  28
DIXON          CLOUDY    50  27  41 SW15G21   29.75F
RAWLINS        CLOUDY    42  34  73 W17       29.70R
SARATOGA       FAIR      48  28  46 SW32G44   29.68F
LARAMIE        FAIR      41  29  62 SW9G21    29.71F
CHEYENNE       FAIR      53  28  38 W12       29.66F
TORRINGTON     FAIR      44  30  57 S7        29.60R
PINE BLUFFS    FAIR      41  28  60 MISG      29.64F

$$




USA.gov is the U.S. government's official web portal to all federal, state and local government web resources and services.